TimeAKST,TemperatureF,Dew PointF,Humidity,Sea Level PressureIn,VisibilityMPH,Wind Direction,Wind SpeedMPH,Gust SpeedMPH,PrecipitationIn,Events,Conditions,WindDirDegrees,DateUTC
12:53 AM,12.9,3.0,65,29.75,10.0,North,5.8,-,N/A,,Overcast,10,2012-11-04 08:53:00
1:53 AM,15.1,3.0,59,29.73,10.0,North,9.2,-,N/A,,Overcast,360,2012-11-04 09:53:00
1:53 AM,15.1,3.0,59,29.73,10.0,North,8.1,-,N/A,,Overcast,360,2012-11-04 10:53:00
3:53 AM,15.1,3.9,61,29.72,10.0,North,3.5,-,N/A,,Overcast,360,2012-11-04 12:53:00
4:53 AM,16.0,6.1,65,29.70,10.0,North,5.8,-,N/A,,Overcast,10,2012-11-04 13:53:00
5:53 AM,16.0,7.0,68,29.71,10.0,North,9.2,-,N/A,,Overcast,360,2012-11-04 14:53:00
6:53 AM,16.0,8.1,71,29.72,8.0,North,8.1,-,N/A,Snow,Light Snow,10,2012-11-04 15:53:00
7:53 AM,15.1,8.1,74,29.71,6.0,North,9.2,-,N/A,Snow,Light Snow,360,2012-11-04 16:53:00
8:53 AM,15.1,8.1,74,29.72,6.0,North,6.9,-,N/A,Snow,Light Snow,360,2012-11-04 17:53:00
9:53 AM,15.1,8.1,74,29.72,3.0,North,9.2,-,N/A,Snow,Light Snow,360,2012-11-04 18:53:00
9:57 AM,15.8,8.6,73,29.68,2.0,North,10.4,-,N/A,Snow,Light Snow,360,2012-11-04 18:57:00
10:00 AM,15.8,8.6,73,29.68,1.5,North,10.4,-,N/A,Snow,Light Snow,360,2012-11-04 19:00:00
10:38 AM,15.8,8.6,73,29.68,2.0,North,8.1,-,N/A,Snow,Light Snow,360,2012-11-04 19:38:00
10:49 AM,15.8,8.6,73,29.68,2.5,North,9.2,-,N/A,Snow,Light Snow,360,2012-11-04 19:49:00
10:53 AM,15.1,9.0,77,29.72,2.5,North,9.2,-,N/A,Snow,Light Snow,10,2012-11-04 19:53:00
11:03 AM,15.8,8.6,73,29.68,3.0,North,8.1,-,N/A,Snow,Light Snow,360,2012-11-04 20:03:00
11:53 AM,15.1,8.1,74,29.72,5.0,North,6.9,-,N/A,Snow,Light Snow,350,2012-11-04 20:53:00
12:53 PM,15.1,7.0,70,29.73,9.0,North,8.1,-,N/A,,Overcast,350,2012-11-04 21:53:00
1:53 PM,15.1,7.0,70,29.73,6.0,North,9.2,-,N/A,Snow,Light Snow,350,2012-11-04 22:53:00
2:53 PM,14.0,6.1,71,29.73,10.0,NNW,6.9,-,N/A,,Overcast,340,2012-11-04 23:53:00
3:26 PM,14.0,6.8,73,29.69,2.5,NNW,9.2,-,N/A,Snow,Light Snow,340,2012-11-05 00:26:00
3:33 PM,14.0,6.8,73,29.70,1.8,NNW,10.4,-,N/A,Snow,Light Snow,340,2012-11-05 00:33:00
3:37 PM,14.0,6.8,73,29.69,1.8,NNW,9.2,-,N/A,Snow,Light Snow,340,2012-11-05 00:37:00
3:53 PM,12.9,7.0,77,29.74,1.8,NNW,9.2,-,N/A,Snow,Light Snow,340,2012-11-05 00:53:00
4:12 PM,12.2,6.8,79,29.70,3.0,NNW,10.4,-,N/A,Snow,Light Snow,340,2012-11-05 01:12:00
4:53 PM,12.0,5.0,73,29.75,6.0,North,11.5,-,N/A,Snow,Light Snow,350,2012-11-05 01:53:00
5:53 PM,12.0,3.9,70,29.76,6.0,NNW,9.2,-,N/A,Snow,Light Snow,340,2012-11-05 02:53:00
6:53 PM,10.9,3.0,70,29.78,6.0,North,10.4,-,N/A,Snow,Light Snow,350,2012-11-05 03:53:00
7:53 PM,9.0,1.9,73,29.79,6.0,NNW,8.1,-,N/A,Snow,Light Snow,340,2012-11-05 04:53:00
8:53 PM,7.0,-0.9,70,29.81,7.0,North,6.9,-,N/A,,Scattered Clouds,350,2012-11-05 05:53:00
9:53 PM,5.0,-2.9,70,29.83,7.0,North,5.8,-,N/A,,Scattered Clouds,10,2012-11-05 06:53:00
10:53 PM,1.9,-5.1,72,29.84,10.0,North,6.9,-,N/A,,Scattered Clouds,360,2012-11-05 07:53:00